TITAN 3C TRANSTAGE DEB, 3373

Orbit data source: Space-Track

TITAN 3C TRANSTAGE DEB, 3373 is space debris in LEO originally from a launch on Fri, 15 Oct 1965 UTC launched from the Air Force Eastern Test Range (AFETR). Debris objects in space refer to the collection of defunct objects orbiting the Earth. Examples of debris include non-operational satellites, rocket bodies, and fragments generated from explosions, collisions, or faulty payload assembly.

Loading next visibility...
Identifier
3373, 1965-082ML
Orbit
LEO
Country
Flag of USUS
Related business
Manufacturer
Unknown
Mission
Spacecraft
Bus & Motor
Unknown
Mass
Unknown
Launch date (UTC)
1965-10-15 (60 years ago)
Launch vehicle
Unknown
Launch site
Air Force Eastern Test Range (AFETR)
Object type
Payload
Rocket body
Debris
Shape & HBR
Unknown
Radar Cross Section
Small (<0.1 m²)

Expand to show TLE details & history
Last TLE update: 22 hours ago

TLE from 22 hours ago
0 TITAN 3C TRANSTAGE DEB
1 03373U 65082ML  25260.43484449  .00002093  00000-0  44430-3 0  9994
2 03373  30.9757 305.3414 0156753  14.9501 345.5685 14.49568290 11125
Epoch: 2025-09-17T10:26Z
TLE epoch observation values (Epoch: 2025-09-17T10:26:10.563Z)
Latitude
-0.00004°
Longitude
152.18648°
Altitude
617.882 km
Speed
7.609 km/s
True Right ascension
20h 21m 21s
True Declination
0° 00' 00"
Sunlit
Object was in full shadow at epoch
Visualization orbit readout
Latitude
Unknown
Longitude
Unknown
Altitude
Unknown
Speed
Unknown
Apparent Right ascension
Unknown
Apparent Declination
Unknown
Sunlit
N/A
Visualization observer readout
Local Sidereal Time
01:21:59
Azimuth
Unknown
Elevation
Unknown
Doppler factor
Unknown
Orbital elements
Apogee altitude
842.236 km
Perigee altitude
619.367 km
Semi-major axis
7,108.939 km
Eccentricity
0.01568
Inclination
30.9757°
RAAN
305.3414°
Arg. of periapsis
14.9501°
True anomaly
345.11219°
Mean anomaly
345.5685°
Eccentric anomaly
345.34122°
Mean motion
3.62106 °/min
Orbital period
99.42 mins
BSTAR
0.0004443
Loading maneuver chart data...
Computing Atmospheric mass density...

Documentation

Showing up to 5 results
|